Location: Cuiry
(49.3858°N, 3.7708°E)
Time: 23:16:15
(UTC+00:00)

YAOGAN 1 - Pass Details

Date: 12 January 2026
Orbit: 605 x 607 km, 97.8° (Epoch: 9 February)

Event Time Altitude Azimuth Distance (km) Brightness Sun altitude
Rises 17:25:13 0° 144° (SE) 2,855 5.8 -11.8°
Reaches altitude 10° 17:27:28 10° 137° (SE) 1,956 4.9 -12.2°
Maximum altitude 17:31:26 39° 69° (ENE) 917 2.9 -12.8°
Drops below altitude 10° 17:35:25 10° 0° (N) 1,969 5.0 -13.4°
Sets 17:37:41 0° 353° (N) 2,877 5.9 -13.7°
